Location: Augustenthal
(51.7167°N, 10.2833°E)
Time: 23:09:50
(UTC+00:00)

ALOS 2 - Pass Details

Date: 18 May 2021
Orbit: 630 x 632 km, 97.9° (Epoch: 24 June)

Event Time Altitude Azimuth Distance (km) Brightness Sun altitude
Exits shadow 21:51:02 21° 119° (ESE) 1,423 4.0 -16.2°
Maximum altitude 21:53:21 36° 66° (ENE) 1,005 3.6 -16.3°
Drops below altitude 10° 21:57:24 10° 360° (N) 2,029 6.3 -16.5°
Sets 21:59:43 0° 352° (N) 2,942 7.7 -16.6°
